Time,TemperatureF,DewpointF,PressureIn,WindDirection,WindDirectionDegrees,WindSpeedMPH,WindSpeedGustMPH,Humidity,HourlyPrecipIn,Conditions,Clouds,dailyrainin,SolarRadiationWatts/m^2,SoftwareType,DateUTC
2013-02-01 00:14:00,48.1,44.0,30.20,South,169,1.0,2.0,85,0.00,,,0.00,0,weatherlink.com 1.10,2013-02-01 08:14:00,
2013-02-01 00:29:00,47.8,44.0,30.20,South,169,2.0,2.0,85,0.00,,,0.00,0,weatherlink.com 1.10,2013-02-01 08:29:00,
2013-02-01 00:44:00,47.4,43.0,30.20,South,169,2.0,2.0,86,0.00,,,0.00,0,weatherlink.com 1.10,2013-02-01 08:44:00,
2013-02-01 00:59:00,47.2,44.0,30.20,South,169,2.0,3.0,87,0.00,,,0.00,0,weatherlink.com 1.10,2013-02-01 08:59:00,
2013-02-01 01:14:00,47.5,44.0,30.20,South,169,1.0,2.0,87,0.00,,,0.00,0,weatherlink.com 1.10,2013-02-01 09:14:00,
2013-02-01 01:29:00,47.3,43.0,30.20,South,178,1.0,3.0,86,0.00,,,0.00,0,weatherlink.com 1.10,2013-02-01 09:29:00,
2013-02-01 01:44:00,47.0,43.0,30.19,South,178,0.0,3.0,87,0.00,,,0.00,0,weatherlink.com 1.10,2013-02-01 09:44:00,
2013-02-01 01:59:00,47.1,44.0,30.20,South,178,1.0,3.0,87,0.00,,,0.00,0,weatherlink.com 1.10,2013-02-01 09:59:00,
2013-02-01 02:14:00,47.0,43.0,30.20,South,178,2.0,2.0,87,0.00,,,0.00,0,weatherlink.com 1.10,2013-02-01 10:14:00,
2013-02-01 02:29:00,47.1,43.0,30.20,South,178,1.0,3.0,86,0.00,,,0.00,0,weatherlink.com 1.10,2013-02-01 10:29:00,
2013-02-01 02:44:00,46.8,43.0,30.20,South,179,2.0,2.0,86,0.00,,,0.00,0,weatherlink.com 1.10,2013-02-01 10:44:00,
2013-02-01 02:59:00,46.8,43.0,30.19,South,179,1.0,2.0,86,0.00,,,0.00,0,weatherlink.com 1.10,2013-02-01 10:59:00,
2013-02-01 03:14:00,46.9,43.0,30.19,South,179,1.0,2.0,85,0.00,,,0.00,0,weatherlink.com 1.10,2013-02-01 11:14:00,
2013-02-01 03:29:00,46.7,43.0,30.19,South,179,1.0,3.0,85,0.00,,,0.00,0,weatherlink.com 1.10,2013-02-01 11:29:00,
2013-02-01 03:44:00,46.8,43.0,30.19,South,179,0.0,1.0,86,0.00,,,0.00,0,weatherlink.com 1.10,2013-02-01 11:44:00,
2013-02-01 03:59:00,47.1,43.0,30.19,South,179,1.0,1.0,84,0.00,,,0.00,0,weatherlink.com 1.10,2013-02-01 11:59:00,
2013-02-01 04:14:00,46.8,42.0,30.20,South,179,0.0,3.0,84,0.00,,,0.00,0,weatherlink.com 1.10,2013-02-01 12:14:00,
2013-02-01 04:30:00,46.8,43.0,30.19,South,179,1.0,1.0,85,0.00,,,0.00,0,weatherlink.com 1.10,2013-02-01 12:30:00,
2013-02-01 04:45:00,46.7,42.0,30.19,South,179,0.0,2.0,84,0.00,,,0.00,0,weatherlink.com 1.10,2013-02-01 12:45:00,
2013-02-01 05:00:00,46.4,42.0,30.19,South,179,0.0,1.0,85,0.00,,,0.00,0,weatherlink.com 1.10,2013-02-01 13:00:00,
2013-02-01 05:15:00,46.2,42.0,30.20,South,179,0.0,1.0,86,0.00,,,0.00,0,weatherlink.com 1.10,2013-02-01 13:15:00,
2013-02-01 05:30:00,46.0,42.0,30.19,South,179,0.0,1.0,86,0.00,,,0.00,0,weatherlink.com 1.10,2013-02-01 13:30:00,
2013-02-01 05:45:00,45.7,42.0,30.19,South,179,0.0,1.0,87,0.00,,,0.00,0,weatherlink.com 1.10,2013-02-01 13:45:00,
2013-02-01 06:01:00,45.4,42.0,30.20,South,179,0.0,1.0,88,0.00,,,0.00,0,weatherlink.com 1.10,2013-02-01 14:01:00,
2013-02-01 06:15:00,45.1,42.0,30.20,South,179,0.0,1.0,88,0.00,,,0.00,0,weatherlink.com 1.10,2013-02-01 14:15:00,
2013-02-01 06:30:00,45.0,42.0,30.20,South,179,0.0,1.0,89,0.00,,,0.00,0,weatherlink.com 1.10,2013-02-01 14:30:00,
2013-02-01 06:45:00,44.8,42.0,30.20,South,179,0.0,1.0,90,0.00,,,0.00,0,weatherlink.com 1.10,2013-02-01 14:45:00,
2013-02-01 07:00:00,44.8,42.0,30.20,South,179,0.0,1.0,90,0.00,,,0.00,0,weatherlink.com 1.10,2013-02-01 15:00:00,
2013-02-01 07:15:00,44.7,42.0,30.20,South,179,0.0,1.0,91,0.00,,,0.00,0,weatherlink.com 1.10,2013-02-01 15:15:00,
2013-02-01 07:30:00,44.6,42.0,30.21,South,179,0.0,1.0,91,0.00,,,0.00,14,weatherlink.com 1.10,2013-02-01 15:30:00,
2013-02-01 07:45:00,44.8,43.0,30.21,South,179,0.0,1.0,92,0.00,,,0.00,25,weatherlink.com 1.10,2013-02-01 15:45:00,
2013-02-01 08:00:00,45.0,43.0,30.21,South,179,0.0,1.0,92,0.00,,,0.00,30,weatherlink.com 1.10,2013-02-01 16:00:00,
2013-02-01 08:15:00,45.6,44.0,30.22,South,179,0.0,1.0,92,0.00,,,0.00,35,weatherlink.com 1.10,2013-02-01 16:15:00,
2013-02-01 08:31:00,46.7,45.0,30.21,SE,136,0.0,2.0,93,0.00,,,0.00,40,weatherlink.com 1.10,2013-02-01 16:31:00,
2013-02-01 08:45:00,48.2,46.0,30.21,East,101,0.0,2.0,91,0.00,,,0.00,42,weatherlink.com 1.10,2013-02-01 16:45:00,
2013-02-01 09:00:00,49.7,46.0,30.21,ENE,65,0.0,2.0,87,0.00,,,0.00,46,weatherlink.com 1.10,2013-02-01 17:00:00,
2013-02-01 09:15:00,51.2,46.0,30.21,SSE,166,5.0,5.0,83,0.00,,,0.00,47,weatherlink.com 1.10,2013-02-01 17:15:00,
2013-02-01 09:30:00,52.1,46.0,30.21,ESE,107,2.0,4.0,80,0.00,,,0.00,53,weatherlink.com 1.10,2013-02-01 17:30:00,
2013-02-01 09:45:00,53.1,47.0,30.21,ESE,104,1.0,3.0,79,0.00,,,0.00,54,weatherlink.com 1.10,2013-02-01 17:45:00,
2013-02-01 10:00:00,53.8,46.0,30.21,SSE,156,3.0,5.0,76,0.00,,,0.00,67,weatherlink.com 1.10,2013-02-01 18:00:00,
2013-02-01 10:15:00,54.4,46.0,30.21,SE,128,2.0,4.0,73,0.00,,,0.00,58,weatherlink.com 1.10,2013-02-01 18:15:00,
2013-02-01 10:30:00,55.2,46.0,30.21,SE,131,1.0,5.0,70,0.00,,,0.00,53,weatherlink.com 1.10,2013-02-01 18:30:00,
2013-02-01 10:45:00,55.9,46.0,30.21,SE,133,4.0,4.0,69,0.00,,,0.00,49,weatherlink.com 1.10,2013-02-01 18:45:00,
2013-02-01 11:00:00,56.6,46.0,30.21,ESE,105,1.0,7.0,68,0.00,,,0.00,104,weatherlink.com 1.10,2013-02-01 19:00:00,
2013-02-01 11:15:00,57.2,46.0,30.21,East,81,3.0,4.0,66,0.00,,,0.00,308,weatherlink.com 1.10,2013-02-01 19:15:00,
2013-02-01 11:31:00,58.2,46.0,30.20,SSE,159,2.0,5.0,64,0.00,,,0.00,601,weatherlink.com 1.10,2013-02-01 19:31:00,
2013-02-01 11:46:00,58.9,46.0,30.19,SSE,148,3.0,4.0,62,0.00,,,0.00,615,weatherlink.com 1.10,2013-02-01 19:46:00,
2013-02-01 12:01:00,59.8,45.0,30.18,East,95,1.0,8.0,59,0.00,,,0.00,619,weatherlink.com 1.10,2013-02-01 20:01:00,
2013-02-01 12:16:00,59.8,46.0,30.18,ENE,70,1.0,5.0,60,0.00,,,0.00,531,weatherlink.com 1.10,2013-02-01 20:16:00,
2013-02-01 12:31:00,60.3,46.0,30.17,East,101,1.0,4.0,59,0.00,,,0.00,86,weatherlink.com 1.10,2013-02-01 20:31:00,
2013-02-01 12:46:00,60.3,45.0,30.16,SSE,167,4.0,4.0,58,0.00,,,0.00,32,weatherlink.com 1.10,2013-02-01 20:46:00,
2013-02-01 13:16:00,60.3,46.0,30.15,South,177,0.0,4.0,59,0.00,,,0.00,35,weatherlink.com 1.10,2013-02-01 21:16:00,
2013-02-01 13:31:00,60.0,46.0,30.15,SE,128,0.0,4.0,60,0.00,,,0.00,33,weatherlink.com 1.10,2013-02-01 21:31:00,
2013-02-01 13:46:00,60.4,46.0,30.14,SE,134,0.0,2.0,60,0.00,,,0.00,167,weatherlink.com 1.10,2013-02-01 21:46:00,
2013-02-01 14:01:00,60.0,46.0,30.14,SE,138,0.0,2.0,61,0.00,,,0.00,32,weatherlink.com 1.10,2013-02-01 22:01:00,
2013-02-01 14:16:00,60.5,46.0,30.14,SSE,148,0.0,3.0,60,0.00,,,0.00,23,weatherlink.com 1.10,2013-02-01 22:16:00,
2013-02-01 14:31:00,60.4,47.0,30.14,SE,141,0.0,3.0,61,0.00,,,0.00,33,weatherlink.com 1.10,2013-02-01 22:31:00,
2013-02-01 14:46:00,60.7,47.0,30.14,SSE,153,1.0,2.0,60,0.00,,,0.00,23,weatherlink.com 1.10,2013-02-01 22:46:00,
2013-02-01 15:01:00,60.1,46.0,30.14,SSE,159,0.0,3.0,61,0.00,,,0.00,23,weatherlink.com 1.10,2013-02-01 23:01:00,
2013-02-01 15:16:00,60.3,47.0,30.14,ESE,121,1.0,4.0,61,0.00,,,0.00,26,weatherlink.com 1.10,2013-02-01 23:16:00,
2013-02-01 15:31:00,59.7,46.0,30.14,SE,126,0.0,2.0,61,0.00,,,0.00,35,weatherlink.com 1.10,2013-02-01 23:31:00,
2013-02-01 15:46:00,59.6,46.0,30.14,SE,136,0.0,3.0,62,0.00,,,0.00,37,weatherlink.com 1.10,2013-02-01 23:46:00,
2013-02-01 16:01:00,59.3,47.0,30.14,ESE,121,0.0,1.0,63,0.00,,,0.00,35,weatherlink.com 1.10,2013-02-02 00:01:00,
2013-02-01 16:16:00,59.3,47.0,30.14,SSE,159,0.0,2.0,63,0.00,,,0.00,33,weatherlink.com 1.10,2013-02-02 00:16:00,
2013-02-01 16:31:00,59.1,46.0,30.13,SSE,157,0.0,2.0,63,0.00,,,0.00,30,weatherlink.com 1.10,2013-02-02 00:31:00,
2013-02-01 16:46:00,58.9,47.0,30.14,SSE,150,0.0,2.0,64,0.00,,,0.00,25,weatherlink.com 1.10,2013-02-02 00:46:00,
2013-02-01 17:01:00,58.5,47.0,30.14,SSE,150,0.0,1.0,65,0.00,,,0.00,18,weatherlink.com 1.10,2013-02-02 01:01:00,
2013-02-01 17:16:00,58.0,47.0,30.15,SSE,150,0.0,0.0,66,0.00,,,0.00,7,weatherlink.com 1.10,2013-02-02 01:16:00,
2013-02-01 17:31:00,57.4,47.0,30.15,SSE,150,0.0,0.0,68,0.00,,,0.00,0,weatherlink.com 1.10,2013-02-02 01:31:00,
2013-02-01 17:46:00,56.8,47.0,30.16,SSE,150,0.0,1.0,69,0.00,,,0.00,0,weatherlink.com 1.10,2013-02-02 01:46:00,
2013-02-01 18:01:00,56.1,46.0,30.17,SSW,207,1.0,2.0,70,0.00,,,0.00,0,weatherlink.com 1.10,2013-02-02 02:01:00,
2013-02-01 18:16:00,55.4,47.0,30.17,SSW,207,0.0,2.0,73,0.00,,,0.00,0,weatherlink.com 1.10,2013-02-02 02:16:00,
2013-02-01 18:31:00,55.0,46.0,30.18,SSW,207,0.0,0.0,73,0.00,,,0.00,0,weatherlink.com 1.10,2013-02-02 02:31:00,
2013-02-01 18:46:00,54.5,46.0,30.18,SSW,207,2.0,2.0,74,0.00,,,0.00,0,weatherlink.com 1.10,2013-02-02 02:46:00,
2013-02-01 19:01:00,53.8,46.0,30.19,SSW,207,0.0,1.0,75,0.00,,,0.00,0,weatherlink.com 1.10,2013-02-02 03:01:00,
2013-02-01 19:16:00,53.0,46.0,30.19,SSW,209,1.0,3.0,77,0.00,,,0.00,0,weatherlink.com 1.10,2013-02-02 03:16:00,
2013-02-01 19:31:00,52.5,46.0,30.18,SSW,209,0.0,1.0,78,0.00,,,0.00,0,weatherlink.com 1.10,2013-02-02 03:31:00,
2013-02-01 19:46:00,52.7,46.0,30.19,SSW,209,1.0,2.0,78,0.00,,,0.00,0,weatherlink.com 1.10,2013-02-02 03:46:00,
2013-02-01 20:01:00,52.8,46.0,30.19,SSW,209,1.0,1.0,77,0.00,,,0.00,0,weatherlink.com 1.10,2013-02-02 04:01:00,
2013-02-01 20:16:00,52.8,46.0,30.19,SSW,209,2.0,2.0,77,0.00,,,0.00,0,weatherlink.com 1.10,2013-02-02 04:16:00,
2013-02-01 20:31:00,52.7,46.0,30.19,SSW,209,0.0,2.0,77,0.00,,,0.00,0,weatherlink.com 1.10,2013-02-02 04:31:00,
2013-02-01 20:46:00,52.4,45.0,30.19,SSW,209,0.0,2.0,77,0.00,,,0.00,0,weatherlink.com 1.10,2013-02-02 04:46:00,
2013-02-01 21:01:00,52.2,45.0,30.20,SSW,209,0.0,0.0,77,0.00,,,0.00,0,weatherlink.com 1.10,2013-02-02 05:01:00,
2013-02-01 21:16:00,51.8,45.0,30.20,SSW,209,0.0,1.0,78,0.00,,,0.00,0,weatherlink.com 1.10,2013-02-02 05:16:00,
2013-02-01 21:31:00,51.8,46.0,30.20,SSW,209,0.0,1.0,79,0.00,,,0.00,0,weatherlink.com 1.10,2013-02-02 05:31:00,
2013-02-01 21:46:00,51.9,46.0,30.20,SSW,209,0.0,1.0,79,0.00,,,0.00,0,weatherlink.com 1.10,2013-02-02 05:46:00,
2013-02-01 22:01:00,51.7,45.0,30.20,SSW,209,1.0,2.0,79,0.00,,,0.00,0,weatherlink.com 1.10,2013-02-02 06:01:00,
2013-02-01 22:16:00,51.5,45.0,30.21,SSW,209,1.0,1.0,79,0.00,,,0.00,0,weatherlink.com 1.10,2013-02-02 06:16:00,
2013-02-01 22:31:00,51.5,45.0,30.21,SSW,209,0.0,0.0,78,0.00,,,0.00,0,weatherlink.com 1.10,2013-02-02 06:31:00,
2013-02-01 22:46:00,50.9,45.0,30.21,SSW,209,0.0,1.0,79,0.00,,,0.00,0,weatherlink.com 1.10,2013-02-02 06:46:00,
2013-02-01 23:01:00,50.0,44.0,30.21,SSW,209,0.0,2.0,81,0.00,,,0.00,0,weatherlink.com 1.10,2013-02-02 07:01:00,
2013-02-01 23:16:00,49.7,45.0,30.21,SSW,209,0.0,1.0,83,0.00,,,0.00,0,weatherlink.com 1.10,2013-02-02 07:16:00,
2013-02-01 23:31:00,49.6,45.0,30.21,SSW,209,0.0,0.0,83,0.00,,,0.00,0,weatherlink.com 1.10,2013-02-02 07:31:00,
2013-02-01 23:46:00,49.6,45.0,30.21,SSW,209,1.0,2.0,83,0.00,,,0.00,0,weatherlink.com 1.10,2013-02-02 07:46:00,